Regional Weather Roundup
Issued by NWS Northern Indiana

Home | Current Version | Previous Version | Text Only | Print | Product List | Glossary Off
Versions: 1 2 3 4 5 6 7 8 9 10 11 12 13 14 15 16 17 18 19 20 21 22 23 24 25 26 27 28 29 30 31 32 33 34 35 36 37 38 39 40 41 42 43 44 45 46 47 48 49 50

000
ASUS43 KIWX 241701
RWRIWX

KIWX WEATHER ROUNDUP
NATIONAL WEATHER SERVICE NORTHERN INDIANA
100 PM EDT SUN SEP 24 2017

NOTE: "FAIR" INDICATES FEW OR NO CLOUDS BELOW 12,000 FEET WITH NO
SIGNIFICANT WEATHER AND/OR OBSTRUCTIONS TO VISIBILITY.

* THESE STATIONS ARE NOT UNDER NWS QUALITY CONTROL. THEY ALSO MAY NOT
  REPORT WEATHER SUCH AS PRECIPITATION OR FOG.

INZ001>027-241800-
NORTHERN INDIANA

CITY           SKY/WX    TMP DP  RH WIND       PRES   REMARKS
GARY*          SUNNY     88  59  37 SE7       30.10F
SOUTH BEND     SUNNY     86  60  41 S5        30.12F
GOSHEN         SUNNY     86  57  37 VRB6      30.12F
WARSAW*        SUNNY     82  61  47 SE5       30.12F
AUBURN*        SUNNY     86  55  35 SE3       30.15S
FORT WAYNE     SUNNY     85  59  41 SE7       30.13F
PERU/GRISSOM   SUNNY     86  60  40 E9        30.10F

$$
INZ028>050-241800-
CENTRAL INDIANA

CITY           SKY/WX    TMP DP  RH WIND       PRES   REMARKS
LAFAYETTE      SUNNY     86  65  49 VRB5      30.08F
KOKOMO*        SUNNY     85  63  47 S6        30.12F
MUNCIE*        SUNNY     88  57  34 VRB3      30.11F
INDIANAPOLIS   MOSUNNY   86  59  39 SE8       30.10F

$$
MIZ043>046-050>051-056>058-064>065-071>073-077>080-241800-
SOUTHWEST LOWER MICHIGAN

CITY           SKY/WX    TMP DP  RH WIND       PRES   REMARKS
BATTLE CREEK   SUNNY     88  59  37 S7        30.14F
BENTON HARBOR  SUNNY     89  58  34 S9        30.10F
COLDWATER*     SUNNY     87  54  32 S7        30.14F
HILLSDALE*     CLOUDY    86  55  35 SE7       30.16S
HOLLAND        SUNNY     90  62  39 S8        30.11F
GRAND RAPIDS   MOSUNNY   91  58  32 S10       30.12F
KALAMAZOO      SUNNY     88  55  32 S6        30.13F
STURGIS*       SUNNY     87  59  38 S10       30.13F
THREE RIVERS*  FAIR      89  55  31 S8        30.13F

$$
OHZ001>008-015>018-024>025-241800-
NORTHWEST OHIO

CITY           SKY/WX    TMP DP  RH WIND       PRES   REMARKS
DEFIANCE       SUNNY     86  57  37 SE10      30.13F
FINDLAY        SUNNY     87  58  37 SE9       30.14F
TOLEDO EXPRESS SUNNY     88  59  37 VRB6      30.13F
TOLEDO METCALF SUNNY     88  60  38 SE8       30.14F
LIMA           SUNNY     89  54  30 SE15      30.14F

$$
AND FOR LAKE MICHIGAN COASTAL AND OPEN LAKE BUOY OBSERVATIONS

STATION/POSITION TEMP    WIND        PRES    VSBY  WAVE
                 AIR SEA DIR/SP/G                  HT/PER
                 (F)     (DEG/KT/KT) (MB)    (MI)  (FT/S)
CALUMET HARBOR    81      50/  5/  7 1018.3F
MICHIGAN CITY     84     140/  4/  6   N/A
BURNS HARBOR      85     170/  5/ 12 1019.3F
SAINT JOSEPH      86     190/  4/  8 1020.7
SOUTH LAKE BUOY   72 71  170/  6/  6 1019.4          1/ 3
4 MI NW BRIDGMAN  78 73  200/  2/  2 1019.0F         0
MICHIGAN CITY     79 72  140/  2/  4   N/A           0

$$
&&




USA.gov is the U.S. government's official web portal to all federal, state and local government web resources and services.